Flag for Spain Weather past 2 weeks in Madrid, Spain

Now
52 °F

Passing clouds.


Feels Like: 51 °F
Forecast: 43 / 60 °F
Wind: 3 mph from West

Location: Madrid / Cuatro Vientos

Current Time: Mar 4, 2015 at 12:07:39 AM

Latest Report: Mar 3, 2015 at 9:30 PM


Visibility: N/A

Pressure: 30.27 "Hg

Humidity: 88%

Dew point: 48 °F

Location of MadridLocation

Historic Weather in Madrid — Graph

°F

Madrid temperature yesterday

Maximum temperature yesterday: 64 °F (at 4:30 PM)
Minimum temperature yesterday: 48 °F (at 7:00 AM)
Average temperature yesterday: 56 °F

Past Weeks' High & Low Weather Summary

 TemperatureHumidityPressure
High66 °F (Mar 1, 3:00 PM)100% (Feb 21, 7:00 AM)30.48 "Hg (Feb 21, 7:00 AM)
Low34 °F (Feb 20, 7:00 AM)30% (Feb 21, 5:30 PM)29.77 "Hg (Feb 21, 7:30 AM)
Average51 °F61%30.21 "Hg
* Reported Feb 16 9:00 PM — Mar 3 9:30 PM, Madrid, Weather by CustomWeather, © 2015

Note: Actual official high and low records may vary slightly from our data, if they occured in-between our weather recording intervals... More about our weather records

Advertising

Madrid weather history for previous 24 hours

 ConditionsComfort  
Time TempWeatherWind HumidityBarometerVisibility
9:30 PM
Tue, Mar 3
52 °FPassing clouds.3 mph88%30.27 "HgN/A
8:30 PM52 °FClear.5 mph88%30.27 "Hg10 mi
8:00 PM50 °FClear.3 mph94%30.27 "Hg10 mi
7:30 PM54 °FClear.3 mph88%30.24 "Hg10 mi
7:00 PM57 °FSunny.5 mph77%30.24 "Hg10 mi
6:30 PM59 °FSunny.8 mph72%30.24 "Hg10 mi
6:00 PM59 °FSunny.8 mph72%30.24 "Hg10 mi
5:30 PM64 °FPassing clouds.3 mph60%30.24 "HgN/A
5:00 PM64 °FPassing clouds.3 mph64%30.24 "HgN/A
4:30 PM64 °FSunny.1 mph60%30.24 "Hg10 mi
4:00 PM63 °FPassing clouds.5 mph68%30.24 "HgN/A
3:30 PM61 °FSunny.5 mph72%30.24 "Hg10 mi
3:00 PM61 °FPassing clouds.3 mph68%30.24 "HgN/A
2:30 PM59 °FPassing clouds.5 mph77%30.27 "HgN/A
2:00 PM63 °FPassing clouds.1 mph68%30.27 "Hg5 mi
1:30 PM59 °FScattered clouds.1 mph77%30.30 "Hg5 mi
1:00 PM55 °FPartly sunny.5 mph88%30.30 "Hg4 mi
12:30 PM59 °FFog.2 mph72%30.30 "Hg3 mi
12:00 PM55 °FFog.No wind82%30.30 "Hg2 mi
11:30 AM54 °FFog.1 mph88%30.30 "Hg2 mi
11:00 AM52 °FFog.1 mph94%30.30 "Hg2 mi
10:30 AM52 °FFog.2 mph100%30.30 "Hg2 mi
10:00 AM50 °FFog.No wind100%30.30 "Hg1 mi
9:30 AM50 °FFog.1 mph100%30.30 "Hg1 mi
9:00 AM50 °FFog.2 mph100%30.27 "Hg1 mi
8:30 AM48 °FFog.No wind100%30.27 "Hg0 mi
8:00 AM48 °FFog.1 mph100%30.27 "Hg0 mi
7:30 AM48 °FFog.No wind100%30.27 "Hg1 mi
7:00 AM48 °FFog.2 mph100%30.24 "Hg0 mi
Weather by CustomWeather, © 2015

See weather overviewHow to use our weather pages